FW3054 Weather Reports


time (UTC)temp
C
wind
direction
speed
KPH
gust
KPH
rain 1hr
cm
rain 24hr
cm
rain mn
cm
humidity
%
barometer
mb
20260507195520 15 23 1.6 6.4 0.00 1.42 0.71 82 1011.4
20260507194520 15 23 1.6 6.4 0.00 1.42 0.71 82 1011.2
20260507193521 16 0 1.6 4.8 0.00 1.42 0.71 81 1011.1
20260507192520 16 0.0 0.0 0.00 1.42 0.71 81 1011.4
20260507191520 16 0 1.6 8.0 0.00 1.42 0.71 81 1011.2
20260507190520 16 0.0 4.8 0.00 1.42 0.71 84 1011.2
20260507185520 16 0.0 1.6 0.00 1.42 0.71 85 1011.1
20260507184520 15 0.0 3.2 0.00 1.42 0.71 85 1011.5
20260507183610 16 0.0 3.2 0.00 1.42 0.71 87 1011.5
20260507182522 16 0.0 3.2 0.00 1.42 0.71 86 1011.6
20260507181522 16 0.0 0.0 0.00 1.42 0.71 85 1011.9
20260507180522 16 0.0 3.2 0.00 1.42 0.71 83 1011.6
20260507175522 16 0.0 3.2 0.00 1.42 0.71 83 1011.7
20260507174522 17 0 1.6 3.2 0.00 1.42 0.71 83 1011.5
20260507173522 16 0.0 1.6 0.00 1.42 0.71 84 1011.3
20260507172522 16 0.0 3.2 0.00 1.42 0.71 85 1011.4
20260507171522 16 23 1.6 6.4 0.00 1.42 0.71 85 1011.5
20260507170522 16 0.0 4.8 0.00 1.42 0.71 86 1011.3
20260507165547 16 0.0 1.6 0.00 1.42 0.71 88 1011.2
20260507164522 16 23 1.6 6.4 0.00 1.42 0.71 88 1011.2
20260507163522 16 0.0 3.2 0.00 1.42 0.71 89 1011.1
20260507162522 16 0 1.6 8.0 0.00 1.42 0.71 89 1011.3
20260507161522 16 0 1.6 9.7 0.00 1.45 0.71 90 1011.4
20260507160547 16 0.0 4.8 0.00 1.47 0.71 90 1011.6
20260507155522 16 23 1.6 6.4 0.00 1.52 0.71 90 1011.5
20260507154522 16 0.0 1.6 0.00 1.55 0.71 87 1011.4
20260507153522 16 0.0 4.8 0.00 1.63 0.71 89 1011.3
20260507152522 16 0 3.2 4.8 0.00 1.75 0.71 82 1011.4
20260507151547 16 0.0 1.6 0.00 2.11 0.71 75 1011.2
20260507150522 16 0.0 0.0 0.00 2.16 0.71 73 1011.0
20260507145522 16 0.0 0.0 0.00 2.18 0.71 74 1011.0
20260507144522 16 0.0 0.0 0.00 2.21 0.71 75 1011.0
20260507143522 16 0.0 0.0 0.00 2.21 0.71 75 1011.0
20260507142522 16 0.0 0.0 0.00 2.21 0.71 74 1011.1
20260507141522 16 0.0 1.6 0.00 2.21 0.71 71 1011.5
20260507140613 16 0.0 1.6 0.00 2.21 0.71 70 1011.2
20260507135522 16 0.0 0.0 0.00 2.21 0.71 70 1011.2
20260507134522 16 0.0 0.0 0.00 2.21 0.71 70 1011.1
20260507133521 16 0.0 0.0 0.00 2.21 0.71 71 1011.4
20260507132522 16 0.0 0.0 0.00 2.21 0.71 70 1011.6
20260507131547 16 0.0 0.0 0.00 2.21 0.71 70 1011.4
20260507130547 15 0.0 0.0 0.00 2.21 0.71 70 1011.1
20260507125522 15 0.0 0.0 0.00 2.21 0.71 71 1011.1
20260507124522 15 0.0 1.6 0.00 2.21 0.71 71 1011.1
20260507123547 15 0.0 0.0 0.00 2.21 0.71 71 1011.1
20260507122522 15 0.0 0.0 0.03 2.21 0.71 71 1010.8
20260507121522 15 0.0 0.0 0.08 2.21 0.71 71 1010.5
20260507120521 15 0.0 0.0 0.15 2.21 0.71 72 1010.8
20260507115522 15 0.0 0.0 0.23 2.21 0.71 72 1011.1
20260507114521 15 0.0 0.0 0.30 2.21 0.71 73 1011.2
20260507113521 15 0.0 0.0 0.36 2.21 0.71 73 1011.5
20260507112522 15 0.0 0.0 0.38 2.18 0.69 73 1011.9
20260507111521 15 0.0 0.0 0.33 2.13 0.64 73 1012.1
20260507110521 15 0.0 1.6 0.25 2.06 0.56 73 1012.2
20260507105521 15 0.0 0.0 0.18 1.98 0.48 73 1012.3
20260507104522 15 0.0 0.0 0.10 1.91 0.41 73 1012.1
20260507103521 15 0.0 0.0 0.05 1.85 0.36 73 1011.2
20260507102521 15 0.0 0.0 0.00 1.80 0.30 74 1011.2
20260507101521 15 0.0 0.0 0.00 1.80 0.30 73 1011.1
20260507100521 15 0.0 0.0 0.00 1.80 0.30 73 1011.7
20260507095521 15 0.0 0.0 0.00 1.80 0.30 73 1011.6
20260507094521 15 0.0 0.0 0.00 1.80 0.30 73 1011.2
20260507093521 15 0.0 0.0 0.00 1.80 0.30 73 1011.0
20260507092521 15 0.0 0.0 0.00 1.80 0.30 73 1011.4
20260507091521 15 0.0 0.0 0.00 1.80 0.30 73 1011.4
20260507090521 15 0.0 0.0 0.00 1.80 0.30 74 1011.7
20260507085521 15 0.0 0.0 0.00 1.80 0.30 74 1011.5
20260507084522 15 0.0 0.0 0.00 1.80 0.30 74 1011.6
20260507083521 15 0.0 0.0 0.00 1.80 0.30 74 1011.5
20260507082521 15 0.0 0.0 0.00 1.80 0.30 74 1011.8
20260507081521 15 0.0 0.0 0.00 1.80 0.30 74 1011.5
20260507080521 15 0.0 0.0 0.00 1.80 0.30 73 1011.6
20260507075521 15 0.0 0.0 0.00 1.80 0.30 73 1011.7
20260507074547 15 0.0 0.0 0.03 1.80 0.30 73 1012.7
20260507073521 15 0.0 1.6 0.03 1.80 0.30 73 1011.8
20260507072521 15 0.0 0.0 0.03 1.80 0.30 74 1011.9
20260507071546 15 0.0 0.0 0.03 1.80 0.30 74 1011.9
20260507070521 15 0.0 0.0 0.03 1.80 0.30 74 1012.0
20260507065521 15 0.0 0.0 0.03 1.80 0.30 74 1011.9
20260507064611 16 0.0 0.0 0.00 1.78 0.28 74 1012.1
20260507063521 16 0.0 1.6 0.00 1.78 0.28 74 1012.2
20260507062521 16 0.0 0.0 0.00 1.78 0.28 74 1012.4
20260507061521 16 0.0 0.0 0.00 1.78 0.28 74 1012.6
20260507060521 16 0.0 1.6 0.03 1.78 0.28 74 1012.6
20260507055521 16 0.0 1.6 0.10 1.78 0.28 75 1012.6
20260507054521 16 0.0 0.0 0.15 1.78 0.28 74 1013.0
20260507053521 16 0.0 0.0 0.20 1.78 0.28 75 1013.2
20260507052521 16 0.0 0.0 0.23 1.78 0.28 75 1013.2
20260507051546 16 0.0 0.0 0.25 1.78 0.28 75 1013.2
20260507050521 16 0.0 0.0 0.25 1.75 0.25 75 1013.3
20260507045521 16 0.0 0.0 0.20 1.68 0.18 75 1014.0
20260507044521 16 0.0 0.0 0.18 1.63 0.13 75 1013.3
20260507043521 16 0.0 0.0 0.15 1.57 0.08 75 1013.5
20260507042521 16 0.0 0.0 0.13 1.55 0.05 75 1013.5
20260507041521 16 0.0 0.0 0.10 1.52 0.03 75 1013.3
20260507040521 16 0.0 0.0 0.08 1.50 0.00 75 1013.6
20260507035521 16 0.0 0.0 0.05 1.47 1.47 75 1013.4
20260507034521 16 0.0 0.0 0.03 1.45 1.45 76 1012.7
20260507033521 16 0.0 0.0 0.00 1.42 1.42 77 1013.3
20260507032521 16 0.0 0.0 0.00 1.42 1.42 78 1013.1
20260507031521 16 0.0 0.0 0.00 1.42 1.42 78 1013.3
20260507030521 16 0.0 0.0 0.00 1.42 1.42 78 1013.4
20260507025521 16 0.0 0.0 0.05 1.42 1.42 79 1013.7
20260507024521 16 0.0 0.0 0.10 1.42 1.42 79 1013.7
20260507023521 16 0.0 0.0 0.10 1.42 1.42 78 1013.4
20260507022521 16 0.0 0.0 0.10 1.42 1.42 79 1013.0
20260507021546 16 0.0 3.2 0.10 1.42 1.42 79 1012.9
20260507020521 16 135 1.6 3.2 0.10 1.42 1.42 81 1011.4
20260507015521 16 0.0 1.6 0.08 1.37 1.37 80 1015.3
20260507014522 16 0.0 0.0 0.03 1.32 1.32 81 1015.5
20260507013521 16 0.0 0.0 0.03 1.32 1.32 82 1014.5
20260507012521 16 0.0 0.0 0.08 1.32 1.32 82 1014.6
20260507011521 16 0.0 0.0 0.15 1.32 1.32 83 1014.1
20260507010521 16 0.0 0.0 0.18 1.32 1.32 83 1014.3
20260507005521 16 0.0 0.0 0.15 1.30 1.30 83 1014.5
20260507004521 16 0.0 0.0 0.15 1.30 1.30 84 1014.0
20260507003521 17 0.0 0.0 0.18 1.30 1.30 84 1013.8
20260507002546 17 0.0 0.0 0.23 1.24 1.24 84 1014.1
20260507001521 17 0.0 0.0 0.20 1.17 1.17 85 1013.7
20260507000520 17 0.0 0.0 0.23 1.14 1.14 87 1013.5
20260506235521 17 0.0 0.0 0.23 1.14 1.14 87 1012.9
20260506234521 17 0.0 0.0 0.23 1.14 1.14 87 1013.5
20260506233521 17 0.0 1.6 0.20 1.12 1.12 87 1013.4
20260506232521 17 0.0 0.0 0.10 1.02 1.02 88 1013.9
20260506231521 18 0.0 0.0 0.05 0.97 0.97 88 1013.9
20260506230521 18 0.0 0.0 0.00 0.91 0.91 88 1013.7
20260506225520 18 0.0 0.0 0.03 0.91 0.91 88 1013.8
20260506224546 18 0.0 0.0 0.08 0.91 0.91 89 1013.4
20260506223520 18 0.0 0.0 0.10 0.91 0.91 89 1013.6
20260506222545 18 0.0 1.6 0.10 0.91 0.91 89 1013.2
20260506221520 18 0.0 0.0 0.13 0.91 0.91 89 1012.9
20260506220520 19 0.0 0.0 0.13 0.91 0.91 88 1013.3
20260506215521 19 0.0 0.0 0.10 0.89 0.89 88 1013.1
20260506214520 20 0.0 0.0 0.05 0.84 0.84 87 1014.0
20260506213520 20 0.0 0.0 0.03 0.81 0.81 86 1014.5
20260506212521 20 0.0 0.0 0.03 0.81 0.81 85 1013.8
20260506211546 21 0.0 0.0 0.00 0.79 0.79 83 1014.0
20260506210521 21 0.0 0.0 0.00 0.79 0.79 81 1014.1
20260506205521 22 0.0 0.0 0.00 0.79 0.79 80 1014.5
20260506204611 22 0.0 1.6 0.00 0.79 0.79 77 1014.5
20260506203520 22 0.0 0.0 0.00 0.79 0.79 74 1014.4
20260506202520 22 0.0 1.6 0.00 0.79 0.79 73 1014.3
20260506201520 22 0.0 3.2 0.00 0.79 0.79 75 1014.3
20260506200545 22 23 1.6 4.8 0.00 0.79 0.79 77 1013.8